Overview Statistics Trail Chart Weather Telemetry Raw packets
 

This is the latest recevied weather packets stored in our database for station/object KQ7A. If no packets are shown the sender has not sent any weather packets the latest 10 day(s).

<< 57 58 59 60 61 62 63 >>
Time Temp. Humidity Pressure Rain* Wind** Luminosity Snow
1788288671 22.78° C 24% 1015.8 hPa 0 mm - 735 W/m² -
1788288366 23.33° C 22% 1015.6 hPa 0 mm - 750 W/m² -
1788288062 22.78° C 22% 1015.9 hPa 0 mm - 806 W/m² -
1788287756 22.78° C 22% 1015.5 hPa 0 mm - 678 W/m² -
1788287452 22.78° C 22% 1015.8 hPa 0 mm - 703 W/m² -
1788287148 22.78° C 21% 1015.8 hPa 0 mm - 795 W/m² -
1788286847 22.78° C 20% 1015.9 hPa 0 mm - 893 W/m² -
1788286549 22.78° C 20% 1016.1 hPa 0 mm - 876 W/m² -
1788286241 23.33° C 21% 1015.8 hPa 0 mm - 869 W/m² -
1788285940 22.78° C 20% 1015.9 hPa 0 mm - 868 W/m² -
1788285635 23.33° C 21% 1015.9 hPa 0 mm - 847 W/m² -
1788285328 22.78° C 19% 1016.1 hPa 0 mm - 845 W/m² -
1788285023 23.33° C 19% 1016.3 hPa 0 mm - 837 W/m² -
1788284719 22.78° C 18% 1016.1 hPa 0 mm - 818 W/m² -
1788284414 22.78° C 19% 1016.4 hPa 0 mm - 804 W/m² -
1788284109 23.33° C 21% 1016 hPa 0 mm - 787 W/m² -
1788283805 22.78° C 19% 1016.2 hPa 0 mm - 774 W/m² -
1788283500 22.78° C 23% 1016 hPa 0 mm - 747 W/m² -
1788283198 22.78° C 21% 1015.6 hPa 0 mm - 727 W/m² -
1788282897 22.22° C 24% 1015.9 hPa 0 mm - 721 W/m² -
1788282596 22.22° C 19% 1016.1 hPa 0 mm - 690 W/m² -
1788282291 21.67° C 20% 1015.8 hPa 0 mm - 668 W/m² -
1788281990 21.67° C 22% 1016 hPa 0 mm - 662 W/m² -
1788281685 21.67° C 22% 1016.1 hPa 0 mm - 629 W/m² -
1788281381 22.22° C 21% 1016 hPa 0 mm - 600 W/m² -

* Rain latest hour (hover to see other rain measurements)
** Current wind speed in m/s (hover to see current wind gust speed)